West Palm Beach, FL

10:47 AM EDT on October 21, 2017 (GMT -0400)
Palm Beach International

Weather History for KPBI - February, 2012

Change the Weather History Date:

Thursday, February 23, 2012

  Actual Average Record
Temperature  
Mean Temperature 75 °F 69 °F  
Max Temperature 86 °F 77 °F 88 °F (1990)
Min Temperature 63 °F 60 °F 32 °F (1978)
Degree Days  
Heating Degree Days 0 1  
Month to date heating degree days 22 43  
Since 1 July heating degree days 109 200  
Cooling Degree Days 10 5  
Month to date cooling degree days 150 103  
Year to date cooling degree days 255 211  
Growing Degree Days 25 (Base 50)    
Moisture  
Dew Point 63 °F    
Average Humidity 67    
Maximum Humidity 93    
Minimum Humidity 40    
Precipitation  
Precipitation 0.00 in 0.11 in 3.37 in (1903)
Month to date precipitation 2.95 2.24  
Year to date precipitation 3.33 5.37  
Snow  
Snow 0.00 in - - ()
Month to date snowfall 0.0  
Since 1 July snowfall 0.0  
Snow Depth 0.00 in    
Sea Level Pressure  
Sea Level Pressure 29.97 in    
Wind  
Wind Speed 8 mph (SW)    
Max Wind Speed 16 mph    
Max Gust Speed 21 mph    
Visibility 10 miles    
Events      
T = Trace of Precipitation, MM = Missing Value Source: NWS Daily Summary

Daily Weather History Graph

Daily Weather History Graph

Search for Another Location

Airport or City:

Trip Planner

Search our weather history database for the weather conditions in past years. The results will help you decide how hot, cold, wet, or windy it might be!

Date:

Astronomy

Feb. 23, 2012 Rise Set
Actual Time 6:50 AM EST 6:17 PM EST
Civil Twilight 6:26 AM EST 6:41 PM EST
Nautical Twilight 5:59 AM EST 7:08 PM EST
Astronomical Twilight 5:32 AM EST 7:35 PM EST
Moon 7:31 AM EST (2/23) 8:03 PM EST (2/23)
Length of Visible Light 12h 14m
Length of Day
11h 27m
Waxing Crescent, 3% of the Moon is Illuminated
Feb 23
Waxing Crescent
Feb 29
First Quarter
Mar 8
Full
Mar 14
Last Quarter
Mar 22
New

Hourly Weather History & Observations

Time (EST) Temp. Heat Index Dew Point Humidity Pressure Visibility Wind Dir Wind Speed Gust Speed Precip Events Conditions
12:53 AM 66.0 °F - 62.1 °F 87% 29.99 in 10.0 mi SSW 4.6 mph - N/A   Clear
1:53 AM 64.0 °F - 62.1 °F 93% 29.97 in 10.0 mi SSW 4.6 mph - N/A   Clear
2:53 AM 64.0 °F - 62.1 °F 93% 29.96 in 10.0 mi SSW 4.6 mph - N/A   Clear
3:53 AM 64.0 °F - 62.1 °F 93% 29.96 in 10.0 mi SSW 3.5 mph - N/A   Clear
4:53 AM 64.0 °F - 62.1 °F 93% 29.96 in 10.0 mi South 5.8 mph - N/A   Clear
5:53 AM 64.0 °F - 62.1 °F 93% 29.95 in 10.0 mi SSW 3.5 mph - N/A   Partly Cloudy
6:53 AM 64.0 °F - 62.1 °F 93% 29.96 in 10.0 mi South 6.9 mph - N/A   Mostly Cloudy
7:53 AM 66.9 °F - 64.0 °F 90% 29.99 in 10.0 mi SW 5.8 mph - N/A   Mostly Cloudy
8:53 AM 72.0 °F - 66.0 °F 81% 30.00 in 10.0 mi South 10.4 mph - N/A   Mostly Cloudy
9:53 AM 75.9 °F - 66.0 °F 71% 30.00 in 10.0 mi SW 12.7 mph - N/A   Mostly Cloudy
10:53 AM 78.8 °F - 64.4 °F 61% 30.01 in 10.0 mi WSW 10.4 mph - N/A   Mostly Cloudy
11:53 AM 80.6 °F 82.3 °F 64.4 °F 58% 29.99 in 10.0 mi SSW 11.5 mph - N/A   Scattered Clouds
12:53 PM 82.4 °F 83.9 °F 64.4 °F 54% 29.97 in 10.0 mi SW 9.2 mph 19.6 mph N/A   Scattered Clouds
1:53 PM 84.2 °F 85.0 °F 62.6 °F 48% 29.94 in 10.0 mi SSW 10.4 mph 17.3 mph N/A   Scattered Clouds
2:53 PM 84.9 °F 86.6 °F 64.9 °F 51% 29.92 in 10.0 mi SW 6.9 mph 17.3 mph N/A   Scattered Clouds
3:53 PM 86.0 °F 87.3 °F 64.0 °F 48% 29.91 in 10.0 mi SSW 11.5 mph 18.4 mph N/A   Scattered Clouds
4:53 PM 86.0 °F 86.3 °F 62.1 °F 44% 29.91 in 10.0 mi SW 12.7 mph - N/A   Scattered Clouds
5:53 PM 84.0 °F 83.5 °F 57.9 °F 41% 29.92 in 10.0 mi SW 10.4 mph - N/A   Scattered Clouds
6:53 PM 80.1 °F 81.1 °F 61.0 °F 52% 29.94 in 10.0 mi WSW 6.9 mph - N/A   Scattered Clouds
7:53 PM 75.9 °F - 62.1 °F 62% 29.96 in 10.0 mi SW 6.9 mph - N/A   Partly Cloudy
8:53 PM 73.9 °F - 62.1 °F 66% 29.98 in 10.0 mi WSW 6.9 mph - N/A   Partly Cloudy
9:53 PM 71.1 °F - 63.0 °F 75% 29.99 in 10.0 mi SW 5.8 mph - N/A   Partly Cloudy
10:53 PM 70.0 °F - 63.0 °F 78% 29.99 in 10.0 mi SW 4.6 mph - N/A   Clear
11:53 PM 69.1 °F - 63.0 °F 81% 29.99 in 10.0 mi South 5.8 mph - N/A   Partly Cloudy